Regional Weather Roundup
Issued by NWS Kansas City/Pleasant Hill, MO

Home | Current Version | Previous Version | Text Only | Print | Product List | Glossary On
Versions: 1 2 3 4 5 6 7 8 9 10 11 12 13 14 15 16 17 18 19 20 21 22 23 24 25 26 27 28 29 30 31 32 33 34 35 36 37 38 39 40 41 42 43 44 45 46 47 48 49 50
902
ASUS43 KEAX 211610
RWREAX

WEATHER ROUNDUP FOR EASTERN KANSAS AND NORTHWEST MISSOURI
NATIONAL WEATHER SERVICE KANSAS CITY/PLEASANT HILL MO
1000 AM CST SAT JAN 21 2017

KSZ040-057-103>105-MOZ028-029-037-043-211700-
...KANSAS CITY METROPOLITAN AREA...

CITY           SKY/WX    TMP DP  RH WIND       PRES   REMARKS
K.C. INTL      FOG       40  38  93 S15       29.53R VSB 1/8 WCI  32
K.C. DOWNTOWN  CLOUDY    42  40  92 SW12      29.55R
LEES SUMMIT    CLOUDY    40  40 100 SW14      29.55R FOG     WCI  32
OLATHE - IXD   FOG       40  40 100 SW17      29.56R VSB 1   WCI  31
OLATHE - OJC   CLOUDY    40  40 100 S12       29.56R FOG     WCI  33
LAWRENCE       CLOUDY    41  41 100 S9        29.55R FOG

$$

MOZ001>008-011>017-020>025-030>033-038>040-044>046-053-054-211700-
...NORTHERN AND CENTRAL MISSOURI...

CITY           SKY/WX    TMP DP  RH WIND       PRES   REMARKS
ST. JOSEPH     CLOUDY    42  42 100 SW10      29.51R FOG
MOSBY          CLOUDY    41  41 100 S12       29.55R FOG     WCI  34
WARRENSBURG    CLOUDY    43  39  87 SW10      29.56R
WHITEMAN AFB   MOSUNNY   48  48 100 SW13      29.54R
CLINTON        MOSUNNY   48  39  71 SW13      29.58R
SEDALIA        SUNNY     48  41  76 SW14      29.57R
WARSAW         NOT AVBL
CHILLICOTHE      N/A     42  42 100 SW7       29.51R
KIRKSVILLE     FOG       42  42 100 SW8       29.50R VSB 1/4

$$

MOZ041-047>049-056>058-063>065-088>090-097-211700-
...EASTERN AND SOUTHERN MISSOURI...

CITY           SKY/WX    TMP DP  RH WIND       PRES   REMARKS
ST. LOUIS INTL MOSUNNY   60  46  59 SW14      29.57R
SPIRIT OF STL  MOSUNNY   60  45  57 SW10      29.55R
COLUMBIA       SUNNY     51  40  65 SW16      29.56R
JEFFERSON CITY SUNNY     55  39  54 SW14G22   29.56R
ROLLA          SUNNY     57  41  55 SW14      29.56R
OSAGE BEACH    SUNNY     55  38  52 SW14      29.59R
SPRINGFIELD    SUNNY     56  38  50 SW10      29.59R
BRANSON        SUNNY     61  41  48 S5        29.60R
JOPLIN         SUNNY     54  38  54 S8        29.59R
WEST PLAINS    SUNNY     60  45  57 SW9       29.62R

$$

IAZ060-094-KSZ022-034>040-054-083-096-NEZ052-066-093-211700-
...KANSAS...SOUTHEAST NEBRASKA AND IOWA...

CITY           SKY/WX    TMP DP  RH WIND       PRES   REMARKS
TOPEKA         MOSUNNY   39  38  96 S6        29.55R WCI  35
MANHATTAN      SUNNY     41  37  86 SW9       29.53R
EMPORIA        SUNNY     40  38  93 S8        29.55R WCI  34
CHANUTE        SUNNY     44  39  82 SW10      29.59R
WICHITA        MOSUNNY   38  35  89 S3        29.54S
OMAHA          CLOUDY    40  36  86 SW7       29.45R FOG
LINCOLN        SUNNY     40  36  86 W7        29.46S
FALLS CITY     CLOUDY    40  39  97 W6        29.48R
LAMONI         FOG       42  42 100 SW6       29.45S VSB 1/4
DES MOINES     CLOUDY    44  44 100 SW7       29.44R FOG

$$





USA.gov is the U.S. government's official web portal to all federal, state and local government web resources and services.